Simultaneous Nadir Overpasses (SNOs) Predictions

Prediction of SNOs between FY3D and NOAA-19 Satellite Orbit:

Table of predicted SNOs for the next 14.0 days since TLE Epoch: 12/14/2024
Index Date (FY3D) Time (FY3D) Lat,Lon (FY3D) SZA (FY3D ) Date (NOAA-19) Time (NOAA-19) Lat,Lon (NOAA-19) SZA (NOAA-19 ) Distance(km) Time Diff (sec)
1 12/24/2024 20:32:49 75.88,-124.62 99.22 12/24/2024 20:31:36 75.89,-125.37 99.22 20.35 73
2 12/24/2024 21:23:35 -75.98, 42.36 80.69 12/24/2024 21:22:32 -75.99, 42.24 80.69 3.43 63
3 12/24/2024 22:14:22 76.02,-150.47 99.35 12/24/2024 22:13:30 76.03,-150.37 99.36 2.98 52
4 12/24/2024 23:05:06 -76.02, 16.82 80.65 12/24/2024 23:04:28 -76.03, 16.92 80.64 2.97 38
5 12/24/2024 23:55:52 76.02,-175.85 99.35 12/24/2024 23:55:27 76.03,-175.85 99.36 1.14 25
6 12/25/2024 00:46:36 -76.02, -8.55 80.65 12/25/2024 00:46:25 -76.04, -8.55 80.64 1.53 11
7 12/25/2024 01:37:22 76.02, 158.77 99.35 12/25/2024 01:37:24 76.03, 158.67 99.36 3.00 2
8 12/25/2024 02:28:06 -76.02, -33.93 80.66 12/25/2024 02:28:22 -76.04, -34.03 80.64 3.23 16
9 12/25/2024 03:18:52 76.06, 133.24 99.39 12/25/2024 03:19:19 76.08, 133.35 99.40 3.42 27
10 12/25/2024 04:09:36 -76.07, -59.47 80.61 12/25/2024 04:10:18 -76.04, -59.51 80.64 3.26 42
11 12/25/2024 05:00:22 76.07, 107.86 99.39 12/25/2024 05:01:16 76.08, 107.88 99.40 1.45 54
12 12/25/2024 05:51:06 -76.07, -84.84 80.61 12/25/2024 05:52:14 -76.09, -84.82 80.59 2.13 68
13 12/25/2024 06:41:58 76.34, 81.50 99.65 12/25/2024 06:43:08 76.30, 83.22 99.64 45.52 70



Historial Predications of SNOs between FY3D and NOAA-19
